Location: Rounton
(54.4000°N, 1.3500°W)
Time: 22:44:12
(UTC+00:00)

Vanguard 3 - Pass Details

Date: 02 December 2021
Orbit: 508 x 3260 km, 33.3° (Epoch: 17 January)

Event Time Altitude Azimuth Distance (km) Brightness Sun altitude
Rises 04:32:52 0° 225° (SW) 7,196 - -29.6°
Exits shadow 04:36:51 - 220° (SW) 6,504 11.4 -29.0°
Reaches altitude 10° 04:38:42 10° 216° (SW) 6,189 11.3 -28.7°
Maximum altitude 04:53:41 30° 167° (SSE) 4,293 10.8 -26.5°
Drops below altitude 10° 05:05:25 10° 114° (ESE) 4,840 12.0 -24.8°
Sets 05:09:15 0° 104° (ESE) 5,469 12.7 -24.3°
